Вернуться в каталог

STARLINK-34393

АктивенСвязьVLEO
NORAD 64724·PAYLOAD·🇺🇸 United States

Запущен Jul 2, 2025 с Cape Canaveral Space Force Station

Loading…

Ближайшие Пролёты (ближайшие 24 часа)

TLE

СвежийSource: CelesTrak SupGP

Эпоха: Sep 14, 2026, 23:05 UTC

1 64724C 25144A   26257.96229167 -.00006375  00000+0 -18845-3 0  2571
2 64724  53.1607  19.2961 0001610  76.6304  43.3830 15.34377416    12

Отслеживайте STARLINK-34393 в реальном времени с AllMySat

Download on the App Store